Weather History for KJEF - October, 2013

Change the Weather History Date:

Tuesday, October 22, 2013

  Actual Average Record
Temperature  
Mean Temperature 49 °F -  
Max Temperature 64 °F 71 °F 89 °F (1978)
Min Temperature 34 °F 41 °F 14 °F (1987)
Degree Days  
Heating Degree Days 16    
Moisture  
Dew Point 36 °F    
Average Humidity 65    
Maximum Humidity 93    
Minimum Humidity 38    
Precipitation  
Precipitation 0.00 in - - ()
Sea Level Pressure  
Sea Level Pressure 29.95 in    
Wind  
Wind Speed 7 mph (WNW)    
Max Wind Speed 22 mph    
Max Gust Speed 33 mph    
Visibility 10 miles    
Events Rain    
Averages and records for this station are not official NWS values.
T = Trace of Precipitation, MM = Missing Value Source: NWS Daily Summary

Daily Weather History Graph

Daily Weather History Graph

Search for Another Location

Airport or City:

Trip Planner

Search our weather history database for the weather conditions in past years. The results will help you decide how hot, cold, wet, or windy it might be!

Date:

Astronomy

Oct. 22, 2013 Rise Set
Actual Time 7:25 AM CDT 6:20 PM CDT
Civil Twilight 6:58 AM CDT 6:47 PM CDT
Nautical Twilight 6:27 AM CDT 7:18 PM CDT
Astronomical Twilight 5:56 AM CDT 7:49 PM CDT
Moon 9:03 PM CDT (10/22) 10:51 AM CDT (10/22)
Length of Visible Light 11h 49m
Length of Day
10h 55m
Waning Gibbous, 86% of the Moon is Illuminated
Oct 22
Waning Gibbous
Oct 26
Last Quarter
Nov 3
New
Nov 9
First Quarter
Nov 17
Full

Hourly Weather History & Observations

Time (CDT) Temp. Windchill Dew Point Humidity Pressure Visibility Wind Dir Wind Speed Gust Speed Precip Events Conditions
12:53 AM 37.0 °F 33.3 °F 32.0 °F 82% 30.04 in 10.0 mi East 4.6 mph - N/A   Clear
1:53 AM 34.0 °F 31.0 °F 30.9 °F 89% 30.04 in 10.0 mi East 3.5 mph - N/A   Clear
2:53 AM 36.0 °F 32.1 °F 34.0 °F 93% 30.03 in 10.0 mi East 4.6 mph - N/A   Clear
3:53 AM 37.0 °F 33.3 °F 33.1 °F 86% 30.01 in 10.0 mi East 4.6 mph - N/A   Clear
4:53 AM 37.9 °F - 34.0 °F 86% 30.00 in 10.0 mi Calm Calm - N/A   Mostly Cloudy
5:53 AM 37.9 °F 35.5 °F 34.0 °F 86% 30.00 in 10.0 mi East 3.5 mph - N/A   Overcast
6:53 AM 39.9 °F 35.8 °F 35.1 °F 83% 29.98 in 10.0 mi ESE 5.8 mph - N/A   Overcast
7:53 AM 42.1 °F 40.2 °F 36.0 °F 79% 29.96 in 10.0 mi East 3.5 mph - N/A   Overcast
8:53 AM 46.0 °F 43.1 °F 36.0 °F 68% 29.94 in 10.0 mi South 5.8 mph - N/A   Overcast
9:53 AM 46.9 °F - 36.0 °F 66% 29.93 in 10.0 mi SSW 5.8 mph - N/A   Overcast
10:53 AM 50.0 °F - 37.0 °F 61% 29.91 in 10.0 mi SSW 5.8 mph - 0.00 in   Overcast
11:53 AM 54.0 °F - 37.9 °F 55% 29.88 in 10.0 mi SW 10.4 mph 16.1 mph N/A   Overcast
12:53 PM 57.0 °F - 39.0 °F 51% 29.86 in 10.0 mi SW 11.5 mph - N/A   Overcast
1:53 PM 63.0 °F - 41.0 °F 45% 29.82 in 10.0 mi West 13.8 mph 20.7 mph N/A   Partly Cloudy
2:53 PM 62.1 °F - 41.0 °F 46% 29.80 in 10.0 mi West 15.0 mph 21.9 mph N/A   Mostly Cloudy
3:53 PM 64.0 °F - 37.9 °F 38% 29.82 in 10.0 mi West 21.9 mph 33.4 mph N/A   Scattered Clouds
4:53 PM 61.0 °F - 37.9 °F 42% 29.85 in 10.0 mi WNW 19.6 mph 32.2 mph N/A   Mostly Cloudy
5:53 PM 57.9 °F - 36.0 °F 44% 29.88 in 10.0 mi WNW 15.0 mph 27.6 mph N/A   Clear
6:53 PM 54.0 °F - 36.0 °F 51% 29.92 in 10.0 mi WNW 10.4 mph - N/A   Scattered Clouds
7:53 PM 51.1 °F - 39.0 °F 63% 29.96 in 10.0 mi NNW 9.2 mph - 0.00 in Rain Light Rain
8:53 PM 50.0 °F - 36.0 °F 59% 29.98 in 10.0 mi NNW 17.3 mph 25.3 mph 0.00 in   Overcast
9:53 PM 48.0 °F - 37.0 °F 66% 30.00 in 10.0 mi NNW 9.2 mph 18.4 mph N/A   Overcast
10:42 PM 46.4 °F 41.5 °F 35.6 °F 66% 30.03 in 10.0 mi North 10.4 mph - N/A   Overcast
10:53 PM 46.0 °F 41.4 °F 36.0 °F 68% 30.02 in 10.0 mi North 9.2 mph - N/A   Overcast
11:53 PM 46.0 °F 41.4 °F 34.0 °F 63% 30.02 in 10.0 mi NNW 9.2 mph 18.4 mph N/A   Overcast